Regional Weather Roundup
Issued by NWS

Home | Current Version | Previous Version | Text Only | Print | Product List | Glossary Off
Versions: 1 2 3 4 5 6 7 8 9 10 11 12 13 14 15 16 17 18 19 20 21 22 23 24 25 26 27 28 29 30 31 32 33 34 35 36 37 38 39 40 41 42 43 44 45 46 47 48 49 50

000
ASUS43 KFSD 202202
RWRSD

WEATHER ROUNDUP FOR SOUTH DAKOTA
NATIONAL WEATHER SERVICE SIOUX FALLS SD
500 PM CDT MON APR 20 2015

NOTE: "FAIR" INDICATES FEW OR NO CLOUDS BELOW 12,000 FEET WITH NO
SIGNIFICANT WEATHER AND/OR OBSTRUCTIONS TO VISIBILITY.


SDZ001>005-009-010-012>017-202300-
NORTHWEST AND NORTH CENTRAL SOUTH DAKOTA

CITY           SKY/WX    TMP DP  RH WIND       PRES   REMARKS
BUFFALO          N/A     50  20  30 NW18      29.78F
FAITH            N/A     51  13  21 NW24G33   29.80F
MOBRIDGE       SUNNY     55   0  10 NW30G43   29.72S
$$

SDZ012>016-024>037-041>051-057-063-072>074-202300-
SOUTHWEST AND SOUTH CENTRAL SOUTH DAKOTA

CITY           SKY/WX    TMP DP  RH WIND       PRES   REMARKS
RAPID CTY ARPT MOSUNNY   54  21  27 N29G38    29.83F
PIERRE         SUNNY     56   3  11 NW32G44   29.76F
CUSTER         MOSUNNY   44  14  29 NW14G25   29.84S
ELLSWORTH AFB  PTSUNNY   53  21  28 N23G30    29.83F
PHILIP         PTSUNNY   56  32  40 NW24G35   29.82F
PINE RIDGE     PTSUNNY   53  20  27 N9        29.84F
WINNER         MOCLDY    56  14  19 NW28G39   29.78F
$$

SDZ004>011-016>023-039-040-202300-
NORTHEAST SOUTH DAKOTA

CITY           SKY/WX    TMP DP  RH WIND       PRES   REMARKS
ABERDEEN       PTSUNNY   52  22  30 NW30G39   29.69S
WATERTOWN      CLOUDY    45  26  47 NW24G32   29.64F
BROOKINGS      MOSUNNY   46  28  49 NW30G40   29.66R
SISSETON         N/A     42  29  59 N25G38    29.62F
$$

SDZ017-020-022-023-036>040-048>070-202300-
SOUTHEAST SOUTH DAKOTA

CITY           SKY/WX    TMP DP  RH WIND       PRES   REMARKS
SIOUX FALLS    MOSUNNY   53  10  18 NW31G38   29.66F
HURON          SUNNY     54   8  16 N31G40    29.69S
MITCHELL       SUNNY     56   2  11 NW35G49   29.72S
YANKTON        SUNNY    N/A N/A N/A NW32G41   29.70S
$$

ABBREVIATIONS USED IN REMARKS
   TC - TEMPERATURE IN CELSIUS
  WCI - WIND CHILL INDEX
   HX - HEAT INDEX
  VSB - VISIBILITY




USA.gov is the U.S. government's official web portal to all federal, state and local government web resources and services.